Historique des mesures à Cassis (13260), France
Quotidien Résumé Janvier 3, 2018 Unités:  Métrique/US    US   Métrique
« Précédent (Jour)
Suivant (Jour) »
Quotidien Hebdomadaire Mensuel Annuel Période au choix
  Maximum: Minimum: Moyenne:
Température: 32 °F /  TemperatureC °C 52.9 °F /  11.6 °C 57.7 °F /  14.3 °C
Point de rosée: 32 °F /  DewpointC °C 42.3 °F /  5.7 °C 46 °F /  7.8 °C
Humidité: Humidity % 52 % 62 %
Vitesse du vent: WindSpeedKMH mph /  0 km/h - 1.1 mph /  1.8 km/h
Rafales: WindSpeedGustKMH mph /  0 km/h - -
Vent:- - NW
Pression: 0 in /  PressurehPa hPa 29.9 in /  1012.1 hPa -
Précipitations: 0.0 in /  0 mm    
Historical Graphs
 
 
Mesures pour : Janvier 3, 2018
Heure Temperature Point de rosée Pression Vent Vitesse du vent Rafales Humidité Pluie (par heure)
32 °F /  TemperatureC °C 32 °F /  DewpointC °C 0 in /  PressurehPa hPa Calm     Humidity % HourlyPrecipMM in /  0 mm
00:10 53.4 °F /  11.9 °C 42.3 °F /  5.7 °C 30 in /  1016.1 hPa Calm     66 % 0.0 in /  0 mm
01:10 53.8 °F /  12.1 °C 42.3 °F /  5.7 °C 30 in /  1015.8 hPa Calm     65 % 0.0 in /  0 mm
02:10 52.9 °F /  11.6 °C 42.3 °F /  5.7 °C 30 in /  1015.8 hPa Calm     67 % 0.0 in /  0 mm
03:10 52.9 °F /  11.6 °C 43.3 °F /  6.3 °C 30 in /  1015.5 hPa Calm     70 % 0.0 in /  0 mm
05:10 55.4 °F /  13.0 °C 47.7 °F /  8.7 °C 30 in /  1014.8 hPa Calm     75 % 0.0 in /  0 mm
06:10 55.6 °F /  13.1 °C 47.7 °F /  8.7 °C 30 in /  1014.8 hPa Calm     75 % 0.0 in /  0 mm
07:10 55.9 °F /  13.3 °C 48.7 °F /  9.3 °C 30 in /  1014.8 hPa Calm     77 % 0.0 in /  0 mm
08:10 56.1 °F /  13.4 °C 50.7 °F /  10.4 °C 29.9 in /  1014.1 hPa Calm     82 % 0.0 in /  0 mm
09:10 58.8 °F /  14.9 °C 53.1 °F /  11.7 °C 29.9 in /  1013.8 hPa WNW 7.2 mph /  11.6 km/h 7.2 mph /  11.6 km/h 81 % 0.0 in /  0 mm
11:10 64.2 °F /  17.9 °C 55 °F /  12.8 °C 29.9 in /  1013.4 hPa Calm     72 % 0.0 in /  0 mm
12:10 65.5 °F /  18.6 °C 54.1 °F /  12.3 °C 29.9 in /  1013.1 hPa NW 6.1 mph /  9.8 km/h 7.2 mph /  11.6 km/h 67 % 0.0 in /  0 mm
13:10 62.4 °F /  16.9 °C 52.2 °F /  11.2 °C 29.9 in /  1012.4 hPa WNW 5.5 mph /  8.9 km/h 5.5 mph /  8.9 km/h 69 % 0.0 in /  0 mm
14:10 63.7 °F /  17.6 °C 48 °F /  8.9 °C 29.9 in /  1012.1 hPa NNW 6.1 mph /  9.8 km/h 17.7 mph /  28.5 km/h 57 % 0.0 in /  0 mm
15:10 62.4 °F /  16.9 °C 47.8 °F /  8.8 °C 29.9 in /  1012.1 hPa Calm     59 % 0.0 in /  0 mm
16:10 62.1 °F /  16.7 °C 46 °F /  7.8 °C 29.9 in /  1012.4 hPa Calm   8.2 mph /  13.2 km/h 56 % 0.0 in /  0 mm
17:10 61.9 °F /  16.6 °C 44.1 °F /  6.7 °C 29.9 in /  1012.4 hPa Calm     52 % 0.0 in /  0 mm
18:10 61 °F /  16.1 °C 45.7 °F /  7.6 °C 29.9 in /  1012.8 hPa Calm   12.2 mph /  19.6 km/h 57 % 0.0 in /  0 mm
19:10 60.4 °F /  15.8 °C 44.6 °F /  7.0 °C 29.9 in /  1013.4 hPa Calm     56 % 0.0 in /  0 mm
20:10 60.1 °F /  15.6 °C 43.3 °F /  6.3 °C 29.9 in /  1013.8 hPa Calm   2.9 mph /  4.7 km/h 54 % 0.0 in /  0 mm
21:10 59.7 °F /  15.4 °C 43 °F /  6.1 °C 30 in /  1014.4 hPa Calm     54 % 0.0 in /  0 mm
22:10 59.4 °F /  15.2 °C 43.2 °F /  6.2 °C 30 in /  1014.8 hPa Calm     55 % 0.0 in /  0 mm
23:10 58.8 °F /  14.9 °C 42.6 °F /  5.9 °C 30 in /  1014.4 hPa Calm   1.4 mph /  2.3 km/h 55 % 0.0 in /  0 mm
Observations météo à CASSIS
WU-History script by Weather Underground - 1 mb